DW4524 Weather Reports


time (UTC)temp
C
wind
direction
speed
KPH
gust
KPH
rain 1hr
cm
rain 24hr
cm
rain mn
cm
humidity
%
barometer
mb
20260508025904 12 11 0.0 1.6 0.00 0.56 0.05 44 1014.9
20260508024903 13 20 0.0 0.0 0.00 0.56 0.05 40 1014.7
20260508024403 13 20 0.0 0.0 0.00 0.56 0.05 36 1014.6
20260508023903 13 20 0.0 0.0 0.00 0.56 0.05 38 1014.7
20260508023403 13 20 0.0 0.0 0.00 0.56 0.05 37 1014.6
20260508022903 13 32 0.0 8.0 0.00 0.56 0.05 37 1014.6
20260508022403 13 74 0.0 0.0 0.00 0.56 0.05 40 1014.5
20260508021903 13 77 1.6 3.2 0.00 0.56 0.05 32 1014.5
20260508021403 13 102 0.0 1.6 0.00 0.56 0.05 34 1014.4
20260508020903 13 77 0.0 1.6 0.00 0.56 0.05 33 1014.3
20260508020403 14 194 0.0 1.6 0.00 0.56 0.05 33 1014.3
20260508015903 14 200 0.0 0.0 0.00 0.56 0.05 32 1014.4
20260508015403 15 202 0.0 0.0 0.00 0.56 0.05 31 1014.3
20260508014903 15 202 0.0 0.0 0.00 0.56 0.05 33 1014.2
20260508014403 15 202 0.0 1.6 0.00 0.56 0.05 29 1014.2
20260508013903 16 204 0.0 1.6 0.00 0.56 0.05 28 1014.1
20260508013403 16 247 0.0 4.8 0.00 0.56 0.05 28 1014.0
20260508012903 16 234 0.0 3.2 0.00 0.56 0.05 27 1014.0
20260508011403 16 267 1.6 4.8 0.00 0.56 0.05 27 1014.0
20260508010904 16 216 3.2 8.0 0.00 0.56 0.05 26 1014.0
20260508005403 17 222 3.2 14.5 0.00 0.56 0.05 25 1013.8
20260508004903 17 298 3.2 8.0 0.00 0.56 0.05 25 1013.9
20260508004403 16 257 1.6 11.3 0.00 0.58 0.05 26 1013.9
20260508003403 16 275 4.8 9.7 0.00 0.58 0.05 27 1013.8
20260508002903 16 286 4.8 9.7 0.00 0.58 0.05 27 1013.7
20260508002403 16 304 4.8 11.3 0.00 0.58 0.05 25 1013.8
20260508001903 17 226 4.8 14.5 0.00 0.58 0.05 25 1013.8
20260508001403 17 287 1.6 11.3 0.00 0.58 0.05 26 1013.7
20260508000903 17 289 8.0 11.3 0.00 0.61 0.05 26 1013.8
20260508000404 17 332 3.2 9.7 0.00 0.61 0.05 28 1013.8
20260507235903 16 303 3.2 9.7 0.00 0.61 0.05 27 1014.0
20260507235403 17 278 4.8 11.3 0.00 0.61 0.05 27 1014.0
20260507234903 17 311 4.8 19.3 0.00 0.61 0.05 25 1013.9
20260507234403 17 209 6.4 12.9 0.00 0.64 0.05 24 1013.9
20260507233903 17 307 3.2 8.0 0.00 0.64 0.05 26 1013.9
20260507232903 16 282 3.2 11.3 0.00 0.64 0.05 25 1013.9
20260507232404 16 285 4.8 8.0 0.00 0.66 0.05 24 1013.9
20260507231903 17 284 3.2 8.0 0.00 0.66 0.05 26 1014.0
20260507231403 17 286 1.6 9.7 0.00 0.66 0.05 27 1013.9
20260507230904 17 251 4.8 11.3 0.00 0.66 0.05 26 1014.0
20260507230403 16 265 4.8 16.1 0.00 0.69 0.05 26 1014.0
20260507225903 16 316 3.2 8.0 0.00 0.69 0.05 27 1014.0
20260507225403 17 284 4.8 12.9 0.00 0.69 0.05 26 1014.0
20260507224903 17 304 8.0 22.5 0.00 0.71 0.05 25 1014.1
20260507223904 17 277 6.4 16.1 0.00 0.71 0.05 26 1014.0
20260507223404 17 289 8.0 19.3 0.00 0.74 0.05 24 1014.0
20260507222903 17 252 4.8 14.5 0.00 0.74 0.05 24 1014.1
20260507222403 17 280 9.7 16.1 0.00 0.74 0.05 24 1014.1
20260507221904 17 293 4.8 14.5 0.00 0.76 0.05 26 1014.0
20260507221403 17 215 9.7 22.5 0.00 0.76 0.05 25 1014.1
20260507220904 17 225 12.9 19.3 0.00 0.79 0.05 24 1014.1
20260507220404 17 260 9.7 19.3 0.00 0.79 0.05 23 1014.2
20260507215904 18 217 11.3 25.7 0.00 0.79 0.05 23 1014.2
20260507215404 18 270 11.3 24.1 0.00 0.81 0.05 25 1014.2
20260507214904 17 276 11.3 20.9 0.00 0.84 0.05 26 1014.3
20260507214404 17 281 11.3 19.3 0.00 0.84 0.05 23 1014.3
20260507213903 18 251 9.7 25.7 0.00 0.86 0.05 25 1014.2
20260507213404 18 249 9.7 19.3 0.00 0.89 0.05 29 1014.3
20260507212404 17 232 4.8 12.9 0.00 1.04 0.05 28 1014.5
20260507211903 17 264 8.0 14.5 0.00 1.07 0.05 28 1014.6
20260507211404 17 296 3.2 14.5 0.00 1.07 0.05 28 1014.6
20260507210904 17 315 4.8 11.3 0.00 1.07 0.05 28 1014.7
20260507210403 16 356 4.8 12.9 0.00 1.07 0.05 29 1014.8
20260507205903 16 13 8.0 19.3 0.00 1.07 0.05 30 1014.9
20260507205404 16 340 4.8 12.9 0.00 1.07 0.05 30 1015.0
20260507204903 16 313 8.0 19.3 0.00 1.07 0.05 29 1015.1
20260507204403 16 269 8.0 19.3 0.00 1.07 0.05 29 1015.2
20260507203904 16 275 4.8 19.3 0.00 1.07 0.05 29 1015.2
20260507202904 17 304 8.0 19.3 0.00 1.07 0.05 29 1015.3
20260507202400 16 224 8.0 16.1 0.00 1.07 0.05 29 1015.4
20260507201901 16 123 4.8 12.9 0.00 1.07 0.05 30 1015.5
20260507201401 16 2 4.8 19.3 0.00 1.07 0.05 30 1015.6
20260507200901 16 226 3.2 19.3 0.00 1.07 0.05 30 1015.6
20260507195401 16 249 6.4 14.5 0.00 1.07 0.05 29 1015.9
20260507194901 16 265 4.8 16.1 0.00 1.07 0.05 33 1015.7
20260507194401 16 279 8.0 20.9 0.00 1.07 0.05 33 1016.0
20260507193901 16 295 9.7 20.9 0.00 1.07 0.05 30 1016.0
20260507192901 16 283 3.2 16.1 0.00 1.07 0.05 28 1016.1
20260507192401 16 344 3.2 12.9 0.00 1.07 0.05 30 1016.1
20260507191901 16 264 8.0 20.9 0.00 1.07 0.05 30 1016.2
20260507190901 16 285 6.4 12.9 0.00 1.07 0.05 28 1016.2
20260507190401 16 294 6.4 14.5 0.00 1.07 0.05 30 1016.3
20260507185901 16 278 3.2 9.7 0.00 1.07 0.05 28 1016.3
20260507185401 16 210 6.4 19.3 0.00 1.07 0.05 26 1016.4
20260507183901 15 218 4.8 11.3 0.00 1.07 0.05 26 1016.5
20260507183401 15 220 1.6 12.9 0.00 1.07 0.05 27 1016.4
20260507182401 15 280 3.2 8.0 0.00 1.07 0.05 28 1016.5
20260507181901 15 265 3.2 4.8 0.00 1.07 0.05 25 1016.4
20260507181401 15 266 3.2 9.7 0.00 1.07 0.05 27 1016.4
20260507180901 14 305 1.6 11.3 0.00 1.07 0.05 26 1016.4
20260507180401 15 245 1.6 8.0 0.00 1.07 0.05 27 1016.5
20260507175901 15 329 1.6 9.7 0.00 1.07 0.05 26 1016.6
20260507175402 15 260 3.2 8.0 0.00 1.07 0.05 27 1016.7
20260507174901 14 305 0.0 4.8 0.00 1.07 0.05 26 1016.7
20260507174401 15 269 4.8 11.3 0.00 1.07 0.05 26 1016.9
20260507173902 14 215 8.0 11.3 0.00 1.07 0.05 28 1016.9
20260507173401 14 298 1.6 9.7 0.00 1.07 0.05 27 1017.0
20260507172902 14 217 3.2 8.0 0.00 1.07 0.05 28 1017.1
20260507172401 14 293 1.6 9.7 0.00 1.07 0.05 28 1017.1
20260507171901 14 302 3.2 4.8 0.00 1.07 0.05 28 1017.1
20260507171401 14 225 3.2 11.3 0.00 1.07 0.05 24 1017.2
20260507170902 14 229 3.2 9.7 0.00 1.07 0.05 26 1017.2
20260507170401 14 231 0.0 4.8 0.00 1.07 0.05 30 1017.3
20260507165901 13 252 3.2 9.7 0.00 1.07 0.05 28 1017.2
20260507165401 13 216 3.2 12.9 0.03 1.07 0.05 27 1017.3
20260507163901 13 231 1.6 4.8 0.03 1.07 0.05 25 1017.4
20260507163401 13 240 4.8 11.3 0.03 1.07 0.05 25 1017.5
20260507162902 13 216 3.2 12.9 0.03 1.07 0.05 26 1017.5
20260507162402 13 215 1.6 9.7 0.03 1.07 0.05 27 1017.5
20260507161901 13 286 1.6 11.3 0.03 1.07 0.05 29 1017.4
20260507161402 12 272 4.8 11.3 0.03 1.07 0.05 29 1017.5
20260507160401 12 245 0.0 9.7 0.03 1.07 0.05 30 1017.6
20260507155901 12 225 1.6 4.8 0.03 1.07 0.05 32 1017.6
20260507155401 12 222 1.6 8.0 0.03 1.04 0.03 29 1017.7
20260507154901 12 302 1.6 8.0 0.03 1.04 0.03 30 1017.7
20260507153902 11 196 3.2 9.7 0.03 1.04 0.03 33 1017.8
20260507153402 11 227 1.6 4.8 0.03 1.04 0.03 34 1017.8
20260507152901 11 273 3.2 8.0 0.03 1.04 0.03 35 1017.8
20260507151901 10 250 3.2 11.3 0.03 1.04 0.03 36 1017.7
20260507150902 10 257 3.2 9.7 0.03 1.04 0.03 37 1017.8
20260507150402 10 286 4.8 9.7 0.03 1.04 0.03 38 1017.9
20260507145901 10 210 3.2 9.7 0.03 1.04 0.03 40 1017.8
20260507145401 9 250 3.2 8.0 0.00 1.02 0.00 40 1017.7
20260507144902 9 265 1.6 8.0 0.00 1.02 0.00 41 1017.8
20260507143901 8 306 1.6 4.8 0.00 1.02 0.00 43 1017.9
20260507143402 8 305 3.2 8.0 0.00 1.02 0.00 45 1017.8
20260507142902 8 310 1.6 4.8 0.00 1.02 0.00 46 1017.9
20260507142402 8 324 1.6 4.8 0.00 1.02 0.00 46 1017.8
20260507141902 8 314 0.0 3.2 0.00 1.02 0.00 45 1017.8
20260507140403 7 24 0.0 3.2 0.00 1.02 0.00 46 1017.8
20260507135401 7 338 0.0 1.6 0.00 1.02 0.00 47 1017.8
20260507134402 6 106 0.0 1.6 0.00 1.02 0.00 49 1017.7
20260507133902 6 6 0.0 4.8 0.00 1.02 0.00 49 1017.7
20260507133402 5 349 0.0 3.2 0.00 1.02 0.00 50 1017.6
20260507132901 5 63 0.0 3.2 0.00 1.02 0.00 53 1017.5
20260507132402 3 12 1.6 4.8 0.00 1.02 0.00 55 1017.4
20260507131901 2 30 0.0 4.8 0.00 1.02 0.00 57 1017.3
20260507131401 2 346 0.0 1.6 0.00 1.02 0.00 58 1017.4
20260507130902 2 77 0.0 3.2 0.00 1.02 0.00 59 1017.4
20260507130402 2 42 0.0 3.2 0.00 1.02 0.00 60 1017.4
20260507125901 1 75 0.0 3.2 0.00 1.02 0.00 60 1017.3
20260507125402 1 76 0.0 3.2 0.00 1.02 0.00 60 1017.3
20260507124901 1 51 0.0 3.2 0.00 1.02 0.00 60 1017.2
20260507124402 1 32 0.0 4.8 0.00 1.02 0.00 59 1017.1
20260507123902 1 52 1.6 4.8 0.00 1.02 0.00 59 1017.1
20260507123402 1 42 0.0 3.2 0.00 1.02 0.00 59 1017.1
20260507122902 1 53 0.0 4.8 0.00 1.02 0.00 59 1017.1
20260507122401 1 62 0.0 0.0 0.00 1.02 0.00 60 1017.0
20260507120902 1 79 0.0 3.2 0.00 1.02 0.00 60 1016.9
20260507115902 0 59 0.0 1.6 0.00 1.02 0.00 61 1016.9
20260507114902 0 74 0.0 1.6 0.00 1.02 0.00 60 1016.9
20260507114402 0 72 0.0 3.2 0.00 1.02 0.00 60 1017.0
20260507113901 0 307 0.0 3.2 0.00 1.02 0.00 60 1017.1
20260507113402 0 91 0.0 1.6 0.00 1.02 0.00 59 1017.1
20260507112402 0 57 0.0 0.0 0.00 1.02 0.00 59 1017.0
20260507111402 0 76 0.0 1.6 0.00 1.02 0.00 59 1017.0
20260507110402 0 73 0.0 1.6 0.00 1.02 0.00 60 1017.1
20260507105902 0 75 0.0 3.2 0.00 1.02 0.00 60 1016.9
20260507104902 0 45 0.0 1.6 0.00 1.02 0.00 60 1016.8
20260507104402 0 79 0.0 3.2 0.00 1.02 0.00 60 1016.9
20260507103902 0 77 0.0 3.2 0.00 1.02 0.00 60 1016.9
20260507102902 0 70 0.0 3.2 0.00 1.02 0.00 61 1016.9
20260507101402 0 83 0.0 3.2 0.00 1.02 0.00 61 1017.1
20260507100902 0 100 0.0 3.2 0.00 1.02 0.00 61 1017.2
20260507100402 0 85 0.0 0.0 0.00 1.02 0.00 61 1017.2
20260507095902 0 80 0.0 0.0 0.00 1.02 0.00 62 1017.2
20260507095402 0 35 0.0 0.0 0.00 1.02 0.00 63 1017.2
20260507094902 0 44 0.0 0.0 0.00 1.02 0.00 64 1017.2
20260507094403 0 70 0.0 0.0 0.00 1.02 0.00 64 1017.1
20260507093902 0 80 0.0 0.0 0.00 1.02 0.00 64 1017.1
20260507093402 0 60 0.0 1.6 0.00 1.02 0.00 65 1017.1
20260507092902 0 68 0.0 1.6 0.00 1.02 0.00 65 1017.2
20260507092402 0 80 0.0 0.0 0.00 1.02 0.00 66 1017.2
20260507091902 0 86 0.0 0.0 0.00 1.02 0.00 67 1017.2
20260507090402 -1 86 0.0 0.0 0.00 1.02 0.00 73 1017.4
20260507085903 -1 86 0.0 0.0 0.00 1.02 0.00 74 1017.6
20260507085402 -1 86 0.0 0.0 0.00 1.02 0.00 74 1017.5
20260507084903 -1 52 0.0 0.0 0.00 1.02 0.00 75 1017.5
20260507084402 -1 79 0.0 0.0 0.00 1.02 0.00 76 1017.5
20260507083902 -1 82 0.0 0.0 0.00 1.02 0.00 76 1017.5
20260507082903 -1 80 0.0 0.0 0.00 1.02 0.00 79 1017.4
20260507082402 -1 92 0.0 0.0 0.00 1.02 0.00 81 1017.6
20260507081902 -1 78 0.0 0.0 0.00 1.02 0.00 83 1017.6
20260507081402 -1 76 0.0 0.0 0.00 1.02 0.00 86 1017.6
20260507080902 -1 82 0.0 0.0 0.00 1.02 0.00 87 1017.6
20260507080402 -2 76 0.0 0.0 0.00 1.02 0.00 89 1017.7
20260507075902 -2 276 0.0 0.0 0.00 1.02 0.00 89 1017.8
20260507075402 -2 282 0.0 0.0 0.00 1.02 0.00 88 1017.8
20260507074903 -2 85 0.0 0.0 0.00 1.02 0.00 89 1017.7
20260507074403 -2 85 0.0 0.0 0.00 1.02 0.00 90 1017.8
20260507073903 -2 85 0.0 0.0 0.00 1.02 0.00 91 1017.9
20260507073403 -2 88 0.0 0.0 0.00 1.02 0.00 91 1017.9
20260507072902 -2 102 0.0 0.0 0.00 1.02 0.00 92 1018.1
20260507072402 -2 102 0.0 0.0 0.00 1.02 0.00 93 1018.0
20260507071902 -2 86 0.0 0.0 0.00 1.02 0.00 93 1018.0
20260507071403 -2 12 0.0 0.0 0.00 1.02 0.00 93 1018.1
20260507070903 -2 87 0.0 0.0 0.00 1.02 0.00 94 1017.9
20260507070403 -2 82 0.0 1.6 0.00 1.02 0.00 93 1018.0
20260507065402 -2 82 0.0 0.0 0.51 1.02 0.00 93 1018.0
20260507064403 -2 82 0.0 0.0 0.51 1.02 0.00 93 1018.1
20260507063903 -2 82 0.0 0.0 0.51 1.02 0.00 93 1018.2
20260507063403 -2 82 0.0 0.0 0.51 1.02 0.00 93 1018.1
20260507061903 -2 82 0.0 0.0 0.51 1.02 0.00 93 1018.0
20260507061402 -2 82 0.0 0.0 0.51 1.02 0.00 93 1018.0
20260507060902 -1 82 0.0 0.0 0.51 1.02 0.00 93 1018.0
20260507055902 -1 77 0.0 1.6 0.00 0.89 0.51 93 1018.1
20260507055403 -1 84 0.0 1.6 0.00 0.89 0.51 93 1017.9
20260507054903 -1 84 0.0 0.0 0.00 0.89 0.51 93 1017.9
20260507053903 -1 84 0.0 0.0 0.00 0.89 0.51 92 1017.8
20260507053403 -1 84 0.0 1.6 0.00 0.89 0.51 92 1017.9
20260507052902 -1 94 0.0 1.6 0.00 0.89 0.51 92 1017.9
20260507052403 -1 86 0.0 0.0 0.00 0.89 0.51 92 1017.8
20260507051403 -1 107 0.0 0.0 0.00 0.89 0.51 92 1017.7
20260507050903 -1 105 0.0 0.0 0.00 0.89 0.51 92 1017.8
20260507050402 -1 82 0.0 3.2 0.00 0.89 0.51 92 1017.6
20260507045402 -1 72 0.0 4.8 0.00 0.89 0.51 92 1017.7
20260507044403 0 76 1.6 3.2 0.00 0.89 0.51 91 1017.7
20260507043903 0 233 0.0 1.6 0.00 0.89 0.51 91 1017.6
20260507043403 0 245 0.0 3.2 0.00 0.89 0.51 91 1017.6
20260507041403 0 240 0.0 0.0 0.00 0.89 0.51 91 1017.8
20260507040903 0 78 0.0 0.0 0.00 0.89 0.51 90 1017.8
20260507040403 0 79 0.0 0.0 0.00 0.89 0.51 90 1017.8
20260507035903 -1 81 0.0 0.0 0.00 0.89 0.51 90 1017.8
20260507035402 0 81 0.0 0.0 0.00 0.89 0.51 89 1017.8
20260507034903 0 81 0.0 0.0 0.00 0.89 0.51 89 1017.8
20260507034404 0 250 0.0 1.6 0.00 0.89 0.51 88 1017.8
20260507033903 0 226 0.0 0.0 0.00 0.89 0.51 88 1017.9
20260507033403 0 252 0.0 0.0 0.00 0.89 0.51 87 1017.8
20260507032402 0 246 0.0 0.0 0.00 0.89 0.51 87 1017.8
20260507031903 0 279 0.0 0.0 0.00 0.89 0.51 87 1017.6
20260507031403 0 45 0.0 3.2 0.00 0.89 0.51 86 1017.7
20260507030903 0 94 0.0 0.0 0.00 0.89 0.51 85 1017.6
20260507030403 0 84 0.0 1.6 0.00 0.89 0.51 85 1017.5